GFSNGP_sfc_thetae_024.txt.gz
Theta_e
288 291 292 291 291 291 290 291 287 290 292 296 299 301 303 304 305 306 307 308 309 309 308 308 309 312 314 314 314 314 316 317 316 318 320 322 322 322 323 324 325 324 325 325
283 291 292 291 291 292 292 292 291 292 292 298 301 305 305 305 306 307 308 310 310 310 309 308 311 312 314 314 313 314 316 316 316 318 320 321 321 321 322 323 325 326 325 325
279 286 288 286 291 291 292 295 294 290 296 298 301 304 305 305 307 308 309 311 311 311 310 310 311 314 313 313 313 313 316 316 317 319 319 320 321 319 318 318 321 323 323 324
279 285 280 290 295 296 293 294 295 295 297 300 302 306 307 309 309 309 310 311 312 312 311 311 312 313 314 313 313 313 314 316 317 319 316 319 318 316 315 315 318 320 321 322
279 282 287 291 294 293 290 291 297 297 299 300 302 306 306 310 311 311 312 313 314 313 312 310 312 313 314 312 313 313 313 316 316 318 316 317 316 314 314 315 315 316 319 320
282 281 280 290 297 300 298 287 298 302 299 300 303 300 303 309 311 311 312 313 314 313 311 311 313 313 312 312 312 312 313 315 316 318 316 316 315 313 314 315 315 316 317 319
281 280 286 295 297 299 287 287 297 300 305 302 301 306 309 311 312 313 313 313 314 312 310 311 313 314 312 312 312 314 315 315 315 317 317 317 315 314 313 314 314 314 313 314
283 281 282 296 296 289 293 297 298 299 300 303 305 305 306 310 312 311 311 312 314 312 310 310 313 314 312 311 315 315 315 314 314 316 318 317 316 314 313 313 312 311 311 310
289 290 298 298 298 300 298 296 298 298 300 301 308 308 304 308 310 311 312 313 314 313 310 310 313 314 312 313 313 314 314 313 312 315 316 316 315 314 312 312 311 311 312 311
290 297 296 298 301 301 299 298 300 301 301 302 309 309 303 307 310 311 312 313 314 312 310 309 313 314 315 312 314 314 313 312 311 313 313 315 317 316 314 311 311 311 311 312
290 296 297 299 299 299 299 301 300 301 303 309 311 309 304 307 310 312 312 313 313 312 311 311 313 314 313 312 313 313 312 312 311 312 314 314 316 316 317 316 313 313 313 313
289 295 296 296 300 301 299 300 300 301 302 311 311 308 305 307 312 312 312 313 313 312 312 312 313 314 312 312 313 312 310 310 311 311 312 315 315 312 297 303 301 299 301 309
295 299 299 300 302 303 299 300 301 302 306 307 310 311 310 307 311 311 313 314 313 312 313 313 313 314 313 313 313 312 311 310 310 310 312 313 315 315 313 308 299 297 297 298
300 300 298 301 298 302 302 302 303 304 309 311 313 314 314 311 311 312 312 314 315 314 313 313 314 314 315 314 313 312 312 302 310 311 313 314 315 316 316 315 314 314 299 301
298 298 298 300 302 302 302 302 300 301 307 309 313 315 315 313 312 314 314 315 315 314 314 314 314 314 316 315 313 312 312 310 311 311 313 312 315 316 316 316 315 316 307 298
296 296 297 297 300 301 301 300 300 301 304 308 310 313 314 316 315 313 314 315 313 312 314 314 314 315 316 316 315 314 313 305 307 311 312 314 315 315 315 315 314 314 312 314
292 293 295 297 300 300 300 302 301 302 303 308 309 312 314 315 315 315 315 315 317 316 315 315 315 316 317 317 316 315 314 310 302 311 312 313 314 314 315 315 314 314 314 312
298 297 297 297 297 298 300 301 301 302 303 307 311 313 314 315 314 315 316 316 315 315 316 316 317 317 317 317 317 316 315 312 311 312 313 313 313 314 314 314 314 314 314 310
301 298 298 299 300 300 301 302 302 303 304 306 310 311 311 314 317 317 317 318 317 315 317 318 304 311 317 315 314 317 316 313 313 313 313 306 309 314 314 314 314 314 314 312
301 300 300 301 302 302 302 304 303 303 304 306 310 309 311 313 316 316 317 316 317 316 318 319 313 317 318 313 303 317 316 315 314 314 313 312 313 313 314 305 314 314 314 313
300 300 301 302 304 305 306 305 303 303 305 310 308 308 310 313 316 315 313 315 318 314 311 307 315 319 318 308 309 317 317 315 315 314 314 312 312 313 314 314 313 314 313 313
301 299 299 300 303 304 303 303 303 303 308 309 308 311 311 313 315 314 313 312 313 292 310 316 313 295 302 294 317 316 317 316 315 315 315 314 314 312 313 313 313 313 313 314
301 300 299 300 302 304 306 308 304 304 304 306 308 308 311 312 313 314 311 311 310 298 315 315 297 294 292 306 317 318 317 317 315 315 315 315 315 315 315 314 314 314 313 313
302 303 302 303 302 303 303 305 306 307 307 305 308 310 312 312 312 313 314 300 291 299 307 300 299 292 297 312 313 317 318 318 317 316 316 304 316 315 314 314 313 315 314 307
302 302 304 304 302 302 303 304 306 307 308 308 308 311 311 311 309 313 314 311 294 307 314 298 294 293 310 315 315 314 314 314 314 315 316 315 315 314 314 314 314 314 313 312
302 301 302 302 303 304 304 306 306 308 306 306 308 309 311 313 313 312 312 305 311 301 310 308 305 309 310 312 313 313 311 308 309 308 308 308 309 308 308 308 308 308 309 308
302 298 301 300 302 303 303 302 302 303 304 304 305 307 309 311 311 309 300 309 308 307 306 305 304 301 306 307 309 308 307 306 300 307 306 305 304 304 303 302 302 302 302 301

GFSNGP_sfc_thetae_027.txt.gz
Theta_e
290 291 293 294 294 294 293 295 291 294 295 301 304 308 311 313 314 315 315 316 317 318 319 321 321 322 324 325 326 326 326 327 328 329 331 331 331 332 333 332 332 331 329 325
289 292 293 292 295 295 295 295 296 297 298 304 308 310 311 312 313 314 315 316 318 318 319 320 321 321 323 324 325 325 325 326 327 329 330 330 331 332 333 332 328 331 329 326
287 290 292 289 295 296 296 297 297 294 299 304 305 309 312 314 314 315 317 317 318 319 320 321 322 323 323 324 326 324 324 325 326 328 329 329 330 330 331 330 331 326 330 327
286 290 283 295 302 301 298 299 300 301 302 305 306 309 314 317 316 317 318 319 320 320 321 322 323 323 325 325 324 323 324 324 325 326 328 329 329 327 327 328 328 327 324 327
285 287 292 296 298 297 297 298 302 304 303 305 308 311 312 317 319 320 321 322 322 323 323 323 322 324 324 323 323 322 322 323 324 326 327 327 326 325 327 329 330 328 328 327
287 283 285 294 299 302 302 294 301 302 303 308 310 301 306 317 320 320 322 323 322 323 324 323 323 324 323 322 323 322 322 323 325 327 327 327 326 325 327 329 329 329 328 327
286 286 290 298 301 302 293 294 301 302 303 304 306 309 316 316 322 322 322 323 324 323 322 323 324 323 322 322 322 324 324 324 325 327 326 329 326 326 328 328 328 328 327 328
286 285 285 300 301 295 298 302 302 303 304 304 306 308 311 315 317 321 321 321 322 321 321 324 323 323 322 322 324 325 324 323 324 328 325 325 326 326 327 328 328 327 326 325
291 292 300 300 301 305 303 301 302 303 304 306 307 309 312 315 317 320 321 322 322 321 321 322 323 323 322 324 325 324 323 323 324 327 326 327 325 324 325 327 326 324 322 323
292 296 298 298 301 302 303 303 304 305 305 307 308 315 317 319 318 318 321 321 322 322 320 319 322 323 325 324 324 323 323 323 323 325 325 327 325 324 322 324 323 322 321 320
292 296 298 300 300 301 302 304 304 306 307 309 312 314 316 317 318 317 320 321 322 322 322 320 321 323 325 324 323 323 324 323 322 323 324 325 326 324 322 325 321 322 323 323
292 297 296 296 300 301 302 303 305 305 306 311 314 316 317 317 317 318 320 321 321 322 322 321 321 322 323 323 323 324 323 321 321 321 323 324 324 323 298 305 302 300 304 316
297 301 300 300 302 304 301 304 306 305 307 309 315 319 320 320 316 315 320 320 320 322 322 321 321 321 322 322 323 324 325 324 320 318 320 321 322 322 321 313 299 298 297 298
300 301 300 301 299 302 303 305 306 307 308 309 313 318 321 321 319 317 319 321 322 322 322 321 321 321 322 322 323 324 326 308 321 320 320 320 321 321 322 321 320 321 301 304
299 300 300 300 300 300 303 305 304 305 306 307 311 315 318 320 321 319 321 322 323 322 321 321 321 322 322 321 323 323 324 320 322 321 320 318 321 321 321 321 321 321 323 303
298 299 300 299 300 301 302 304 304 305 305 306 308 312 317 321 322 322 321 321 320 320 320 320 321 323 322 322 323 322 323 310 314 321 320 320 320 321 320 321 321 321 321 321
297 296 299 299 299 301 302 303 304 304 305 306 307 310 317 320 322 322 321 322 322 323 322 323 323 323 322 323 324 322 321 318 308 320 320 320 320 320 321 321 320 320 321 319
301 303 303 302 300 300 301 302 304 305 305 306 307 309 315 318 320 322 323 325 322 323 324 324 325 324 323 322 324 322 322 320 317 319 321 320 321 321 321 321 321 321 321 319
302 301 303 304 303 302 302 304 305 306 307 307 307 308 314 319 322 322 324 325 322 321 323 325 306 315 325 321 319 323 321 320 318 320 321 312 318 321 321 321 321 321 322 321
302 303 303 304 304 304 304 306 308 308 309 308 308 313 313 318 321 321 324 324 323 323 323 326 318 323 325 319 305 323 322 322 319 320 320 320 320 320 321 311 320 321 322 322
302 302 302 302 304 306 308 309 309 309 308 308 308 313 314 316 320 321 321 322 325 318 319 308 323 323 324 318 313 323 322 322 322 322 321 320 321 321 322 321 321 321 322 322
302 302 302 303 303 305 308 311 309 308 307 307 310 314 314 315 318 322 320 318 321 295 319 324 319 297 315 298 320 322 322 323 323 322 322 321 321 321 321 322 321 321 321 322
303 305 305 304 304 307 309 310 311 311 311 311 308 313 313 316 321 320 320 322 318 309 324 322 297 292 288 323 323 323 323 322 322 323 323 323 322 321 321 322 322 322 322 322
302 303 305 306 305 306 304 305 309 311 313 310 309 311 314 316 320 323 322 305 294 298 316 309 301 290 296 323 323 320 319 320 322 323 323 306 324 323 322 323 321 323 323 317
305 303 303 303 303 303 305 305 306 310 312 313 312 314 316 319 317 319 320 323 297 304 321 291 290 292 325 326 323 322 319 317 316 320 323 326 323 323 323 322 323 323 323 323
305 304 305 304 304 305 303 303 303 305 307 306 308 313 316 319 321 319 320 309 318 306 320 320 319 322 323 324 322 322 318 313 312 313 313 321 322 323 322 321 321 320 321 322
305 298 303 304 304 304 302 301 302 301 303 305 304 307 312 316 318 315 306 319 318 316 316 316 316 309 317 317 317 315 313 308 302 310 312 312 314 316 315 314 313 313 314 313

GFSNGP_sfc_thetae_030.txt.gz
Theta_e
296 296 296 298 297 298 298 299 296 298 298 303 311 311 315 319 320 321 321 322 323 323 325 326 326 324 325 327 328 328 327 328 331 333 334 334 335 334 335 334 333 332 330 330
292 296 296 295 298 299 299 300 299 300 299 307 309 310 312 317 319 320 321 322 323 324 325 326 325 324 325 326 327 328 326 327 330 332 332 334 335 335 334 332 332 332 329 328
289 295 294 292 297 299 300 301 301 297 303 307 307 309 312 316 319 321 322 323 323 324 326 327 326 325 325 326 327 327 326 327 330 332 331 333 334 334 333 332 328 333 331 330
291 294 286 299 305 303 301 302 303 303 305 307 308 312 314 316 320 322 324 324 325 326 327 329 328 326 327 326 326 325 325 325 330 330 330 332 334 334 335 332 329 326 326 324
289 290 295 299 302 302 300 301 306 306 306 307 309 311 311 316 319 323 326 327 328 328 329 330 327 326 326 325 325 324 324 324 328 330 329 331 330 332 335 336 334 332 330 323
291 288 287 298 303 306 306 299 306 307 308 309 312 305 311 321 324 322 327 329 329 329 330 330 328 327 326 325 324 323 324 324 326 329 330 329 330 333 336 336 334 334 329 325
287 291 295 302 305 307 295 298 307 308 309 309 309 313 318 320 321 325 327 329 331 330 329 331 329 327 325 324 323 324 325 325 325 330 330 331 331 335 336 335 333 331 331 330
287 289 289 304 305 300 303 308 308 309 311 311 313 315 317 319 319 323 325 328 330 329 329 331 329 327 325 324 326 325 326 325 325 331 328 330 330 335 335 334 332 331 331 330
293 292 301 303 305 307 308 307 308 309 311 312 313 315 318 321 322 323 325 327 329 329 330 330 329 327 325 326 327 325 325 326 326 328 329 329 329 332 333 334 331 329 329 329
297 300 301 300 304 306 307 308 310 311 313 314 315 318 320 322 324 325 323 326 329 329 328 328 329 328 327 327 326 326 326 326 326 327 328 330 328 327 329 330 328 323 323 328
297 300 303 301 302 304 306 308 309 312 312 313 317 319 321 322 323 324 324 327 329 328 328 329 329 328 329 327 326 326 327 327 327 326 327 329 329 325 324 330 323 323 322 322
291 298 299 300 302 305 305 304 308 310 311 314 316 319 322 324 326 325 324 326 327 329 329 329 329 328 329 329 326 326 326 327 326 324 326 326 328 327 298 303 305 304 306 314
298 303 303 304 305 306 305 304 307 310 312 312 315 319 323 325 327 322 323 325 327 328 329 329 328 327 329 329 328 327 328 328 326 320 324 323 324 326 324 315 302 299 300 301
301 303 302 304 304 305 304 306 307 312 313 313 314 317 321 324 326 325 321 324 327 328 329 329 328 327 329 329 329 327 329 309 326 324 323 323 322 323 323 323 321 322 301 306
301 302 303 305 305 304 306 306 307 310 311 312 314 314 316 322 325 326 326 324 326 327 327 329 327 327 329 329 329 328 328 326 325 325 324 320 323 322 322 321 321 321 322 305
298 299 302 303 304 304 305 305 306 309 310 311 312 312 314 321 326 328 327 326 324 325 327 327 328 329 329 329 330 330 329 313 317 325 323 322 323 322 321 321 321 321 321 322
296 297 300 303 304 305 305 306 306 307 309 311 311 312 315 319 325 327 328 328 326 327 328 328 328 330 330 329 332 329 329 327 313 324 324 323 322 322 322 321 322 322 322 320
302 302 302 304 303 305 306 306 307 308 309 311 311 312 315 318 323 325 328 330 328 327 329 330 330 330 330 329 330 329 329 328 324 324 325 323 322 322 323 322 322 322 323 320
302 303 304 306 305 305 307 307 308 309 310 311 311 311 316 318 320 324 327 330 328 325 328 330 310 317 331 325 322 329 328 328 325 325 325 315 322 322 322 322 322 323 323 323
302 304 304 304 305 307 307 309 310 311 312 311 311 311 316 317 318 320 324 326 330 330 331 330 329 329 330 325 306 328 328 328 326 325 325 325 324 323 323 311 321 322 323 323
303 303 303 304 306 308 310 312 312 311 311 310 309 310 315 316 317 318 320 322 328 326 325 314 328 328 328 323 318 326 328 328 327 326 326 324 325 325 325 325 324 323 323 324
303 305 305 307 308 310 312 313 313 312 312 312 313 313 315 315 316 318 321 325 326 294 321 331 330 305 316 297 327 326 326 328 328 327 327 326 326 326 326 326 326 326 326 326
303 304 306 306 305 307 311 312 312 313 313 314 315 314 314 314 316 317 317 323 324 307 322 329 298 289 288 323 327 326 326 327 327 327 327 327 327 327 326 327 328 327 328 328
305 305 304 306 305 304 304 306 308 312 314 316 317 317 316 315 316 318 323 306 296 302 316 315 305 288 286 325 328 327 327 327 328 327 326 309 325 325 325 326 327 328 329 324
307 305 305 305 303 302 305 305 305 305 308 312 314 316 318 320 319 319 321 321 297 309 324 299 294 291 313 327 329 328 328 328 328 328 328 325 324 324 325 326 326 327 329 329
307 306 306 307 307 305 304 306 305 304 303 303 305 310 313 316 318 320 321 310 322 309 322 325 323 322 325 329 331 330 329 329 326 327 325 327 325 325 325 325 326 326 327 328
306 300 306 306 307 307 306 303 302 303 301 300 302 304 309 313 314 312 306 320 320 321 323 323 323 315 320 325 328 331 331 331 317 327 327 325 323 324 324 324 325 325 325 325

GFSNGP_sfc_thetae_033.txt.gz
Theta_e
293 296 298 299 299 301 301 303 300 303 302 307 313 315 317 321 322 322 323 324 325 326 328 329 328 326 327 327 328 329 327 329 332 335 336 335 334 334 335 335 332 331 331 332
290 293 297 297 300 301 302 303 304 304 302 310 312 314 316 319 321 321 322 324 325 326 328 328 327 324 326 327 327 328 328 329 332 333 332 334 334 335 335 334 333 331 329 329
286 293 295 292 299 301 302 305 304 300 303 309 309 310 312 319 321 321 323 324 326 326 328 329 327 326 326 327 328 327 327 330 331 332 331 333 333 333 332 333 333 332 331 329
288 291 286 298 305 305 302 304 306 305 307 309 310 314 316 321 322 322 324 325 327 328 330 331 328 326 327 327 326 326 326 328 331 331 330 332 333 334 333 332 330 327 327 329
288 289 296 299 304 302 302 301 306 306 308 309 312 313 314 323 323 324 327 328 329 330 331 332 328 327 327 326 325 325 325 327 330 330 331 331 331 334 336 334 334 332 329 324
291 288 285 297 306 309 309 300 309 310 310 313 313 305 313 321 324 327 327 330 330 331 332 332 329 328 326 325 324 324 325 326 330 330 331 331 332 335 338 337 334 333 329 326
290 291 296 303 308 309 297 298 310 311 312 312 311 315 319 321 322 325 329 330 332 332 331 332 330 327 325 325 323 325 326 326 329 330 331 333 333 337 337 335 334 332 328 324
292 291 289 306 307 302 305 310 311 312 313 313 316 317 319 321 323 323 326 329 331 331 331 333 330 327 325 325 326 325 327 326 328 331 330 332 333 336 335 334 331 331 328 323
297 294 302 304 305 309 310 309 312 313 314 315 316 318 321 321 324 325 326 329 331 331 332 333 330 327 325 327 327 325 326 326 327 331 329 331 332 334 332 334 329 332 331 327
299 298 301 305 307 308 310 310 312 315 315 316 316 320 322 324 325 326 326 329 331 331 331 331 330 328 327 327 327 325 326 327 328 330 328 329 328 332 331 330 326 329 329 329
296 297 301 305 307 307 308 311 310 313 315 315 317 319 322 324 326 326 327 328 331 331 331 332 331 328 328 327 326 326 326 327 327 328 329 328 327 327 329 333 323 323 330 330
291 298 299 300 306 308 307 309 309 310 313 316 317 318 322 325 328 328 327 327 330 331 332 332 331 328 327 327 326 328 328 326 326 326 327 330 327 324 298 302 303 301 300 314
299 303 302 305 307 308 309 308 309 310 314 315 316 318 320 324 328 324 328 328 328 330 331 332 332 329 328 327 326 328 331 330 325 321 326 326 328 327 322 315 303 303 299 301
304 304 302 303 302 306 309 310 310 311 315 316 316 318 319 321 327 329 327 327 328 330 331 332 332 330 329 328 326 327 331 310 328 324 324 324 327 328 326 323 320 322 304 308
301 303 304 305 306 307 309 309 309 310 313 315 316 316 317 320 326 329 330 328 328 330 330 331 331 331 330 329 329 327 330 326 327 326 324 321 324 325 326 325 322 319 320 307
301 303 303 304 305 306 307 308 308 309 312 314 315 315 316 321 327 330 331 329 325 327 329 330 331 332 330 330 333 329 330 314 318 326 324 323 323 322 322 322 323 321 320 320
297 297 300 301 304 305 305 308 309 309 311 313 314 315 316 320 327 328 330 332 331 328 329 330 331 333 331 331 335 329 328 327 313 325 324 323 322 322 322 321 321 321 321 320
303 303 305 306 304 306 306 308 309 309 311 313 314 315 316 320 321 324 328 333 331 329 331 332 332 333 332 331 334 330 331 329 326 325 325 324 323 323 323 322 321 321 322 319
304 304 306 305 305 305 307 309 309 311 312 314 314 314 316 319 320 322 327 332 331 328 332 333 311 322 333 328 326 331 330 330 328 327 326 315 322 322 322 322 322 322 322 322
303 304 305 305 306 308 309 310 311 312 314 315 314 313 315 319 319 320 325 328 331 328 331 334 332 332 332 328 309 331 331 330 330 328 327 326 325 325 322 310 321 322 323 323
302 306 306 306 307 309 310 311 312 311 312 313 312 313 314 319 319 320 320 324 327 323 324 318 331 332 331 323 322 329 330 332 331 332 329 328 326 326 326 322 322 322 324 324
304 304 304 305 305 308 310 311 313 313 313 313 314 315 315 317 318 319 322 325 324 297 320 330 329 302 310 293 329 329 328 330 331 332 331 330 329 328 328 328 325 325 326 326
305 305 306 306 305 307 308 308 311 311 312 314 315 316 316 316 317 316 316 324 324 311 324 327 299 290 291 322 328 329 329 328 330 330 331 332 330 329 329 329 329 328 330 330
304 305 306 308 307 306 303 305 307 309 310 312 313 316 317 317 318 320 321 305 296 305 320 319 309 291 288 326 328 329 330 329 330 329 330 311 329 329 329 331 329 331 332 325
306 306 306 305 304 305 306 307 305 304 304 306 310 312 314 317 316 318 320 321 296 309 323 297 295 293 325 329 330 332 331 330 329 329 330 330 329 329 330 331 331 329 330 331
307 305 306 306 307 306 306 306 305 304 301 300 302 304 308 312 315 316 318 310 319 309 320 322 324 325 325 325 329 331 332 331 330 330 326 330 330 330 329 329 329 329 329 329
306 301 306 306 307 307 307 305 305 303 302 302 300 302 302 304 306 307 304 317 318 318 319 322 322 315 323 324 325 327 328 329 316 330 330 330 330 331 331 330 330 330 329 330

GFSNGP_sfc_thetae_036.txt.gz
Theta_e
291 292 293 293 296 298 298 301 298 301 302 306 312 315 318 323 324 323 323 324 326 326 328 330 330 328 327 328 329 330 328 332 335 337 335 336 334 334 335 336 333 329 331 331
289 292 291 290 295 298 300 302 303 304 304 313 315 317 318 320 321 321 322 324 326 328 329 329 328 325 327 328 328 329 329 332 334 334 332 335 334 334 335 334 332 330 330 329
285 291 289 287 296 299 301 303 305 301 307 312 310 311 317 320 322 321 323 324 325 327 329 330 327 327 327 328 328 328 329 332 332 332 332 333 333 333 332 332 332 329 329 330
287 287 279 295 305 304 302 304 308 306 307 310 311 314 318 321 322 323 324 325 327 328 331 332 328 327 329 328 326 326 328 330 331 331 331 333 333 333 333 334 330 328 328 331
286 286 288 294 302 303 301 302 308 307 307 308 312 318 317 321 324 326 327 328 329 331 333 332 328 328 327 326 325 325 326 329 331 331 331 332 332 334 332 332 331 328 327 325
289 285 283 297 305 310 309 298 309 311 311 312 313 306 313 320 322 324 329 330 329 331 333 332 329 329 327 325 324 324 325 329 330 332 333 330 334 333 335 334 331 327 324 325
288 286 288 300 305 310 296 298 310 312 313 313 311 314 319 321 322 325 327 330 332 332 332 333 331 329 326 325 323 326 326 329 330 332 334 335 335 335 335 333 331 328 325 324
290 288 284 301 304 300 304 312 312 312 313 313 315 317 318 320 323 324 325 330 331 331 333 333 330 328 327 326 326 327 326 327 330 333 331 333 335 335 334 333 330 324 322 322
294 293 300 304 304 307 308 308 310 312 313 315 316 318 320 321 323 325 326 328 331 331 334 333 330 328 327 329 327 326 326 327 330 331 332 333 334 334 332 331 329 325 324 323
295 295 298 303 305 307 309 309 311 311 314 316 315 318 321 322 323 324 325 326 332 332 332 332 330 329 330 329 327 325 327 328 331 330 329 331 334 334 331 331 330 328 325 325
294 297 299 300 304 306 308 309 310 311 312 315 316 317 320 323 324 325 326 327 332 331 332 332 330 328 329 328 327 326 329 328 330 329 329 329 332 328 331 317 326 331 329 327
292 299 298 300 303 306 306 308 309 309 310 315 316 316 319 322 327 328 327 328 331 334 334 333 331 328 328 328 327 328 328 328 327 328 329 326 325 321 297 301 300 299 308 322
297 302 302 303 305 307 305 308 310 309 311 313 316 317 317 319 325 324 328 329 329 332 334 334 332 329 327 327 327 329 328 328 326 325 328 327 325 323 320 311 299 299 299 305
303 302 300 304 301 306 307 308 310 311 312 314 315 317 317 319 325 328 328 329 330 330 332 334 333 330 328 327 327 330 329 312 327 326 326 328 328 325 323 322 321 320 306 309
299 301 302 305 305 305 307 308 308 309 311 313 315 316 316 318 323 328 330 330 330 329 331 332 332 331 330 327 327 329 328 327 327 324 327 323 329 329 326 323 322 323 317 308
299 300 302 302 304 305 306 307 307 308 310 312 313 315 316 319 324 328 330 332 328 328 330 331 332 334 332 329 328 329 329 315 318 326 324 324 324 325 326 325 321 318 321 319
299 298 300 300 302 304 305 307 307 309 310 311 314 315 316 320 322 324 326 332 334 332 332 334 334 335 333 331 330 327 329 327 313 326 324 324 322 322 323 324 324 320 319 319
302 304 304 304 304 303 305 307 308 309 310 312 314 315 315 318 318 321 325 333 333 332 335 336 329 325 334 332 332 329 328 327 325 324 325 323 323 323 323 322 321 322 322 315
303 304 305 305 306 305 306 307 310 310 311 313 314 314 315 320 319 321 330 328 327 325 327 335 311 327 337 330 327 330 329 328 326 324 324 315 319 323 323 322 321 321 322 318
303 306 306 306 307 307 307 310 311 311 312 313 314 314 314 318 319 320 326 324 323 321 326 330 327 334 333 324 305 330 329 330 329 325 324 325 325 323 322 311 322 321 322 321
304 305 304 304 306 308 308 311 311 311 312 313 313 313 315 317 320 320 321 320 323 320 320 318 328 321 325 312 317 326 330 330 331 328 326 324 326 325 323 322 321 322 322 322
304 304 305 304 305 305 307 309 311 311 312 314 314 315 316 317 318 319 323 323 323 297 318 327 324 301 307 294 327 328 329 332 330 332 329 328 325 327 325 323 322 321 322 324
304 305 305 305 304 304 306 306 306 307 308 310 311 312 313 315 318 316 316 322 323 309 322 324 301 291 291 323 328 328 329 330 330 330 332 331 329 326 328 325 324 323 322 322
306 306 306 307 306 305 303 304 305 304 305 307 305 307 309 310 313 316 316 303 297 304 317 318 309 291 288 325 328 328 328 329 331 329 329 312 330 330 328 328 326 325 326 317
306 307 307 307 305 303 304 305 304 303 303 302 303 304 305 307 307 308 314 315 303 307 321 306 293 293 320 324 326 329 331 331 330 330 329 329 330 329 329 328 328 328 328 327
306 306 307 307 306 305 304 304 302 301 301 300 300 301 302 303 304 305 305 304 311 306 318 321 321 322 322 322 322 325 326 329 330 331 326 330 331 333 332 332 331 330 330 332
306 301 306 304 305 306 304 302 302 300 300 300 299 301 300 299 299 299 295 299 301 305 310 313 316 308 316 318 319 321 323 325 313 322 329 330 331 331 331 331 332 332 332 331

GFSNGP_sfc_thetae_042.txt.gz
Theta_e
286 288 289 288 289 289 287 289 284 289 289 294 298 299 300 310 316 317 318 320 321 321 322 324 325 325 324 323 322 323 323 325 322 323 324 324 324 325 325 324 327 327 327 324
285 288 289 287 291 290 289 290 290 290 290 300 302 309 309 315 317 317 318 320 321 322 323 323 323 323 323 322 320 323 324 325 326 324 325 323 323 324 323 323 323 322 323 320
280 288 288 284 288 289 290 292 292 288 293 300 306 310 310 315 317 317 319 320 321 322 323 323 323 322 319 321 320 324 325 326 326 325 325 324 325 324 321 320 320 319 318 318
281 285 276 288 299 299 297 297 296 296 297 300 307 314 313 315 317 318 320 320 322 323 323 322 322 319 318 319 323 324 325 327 326 326 324 325 324 322 320 318 318 318 316 315
281 283 287 291 295 294 293 295 304 304 306 307 312 313 312 317 318 317 321 322 323 324 323 320 319 318 319 317 323 324 325 325 326 325 324 324 322 321 320 320 318 318 317 314
283 281 279 288 296 298 298 290 305 306 307 307 310 304 306 315 318 319 322 323 323 324 321 319 318 319 318 316 321 323 324 325 326 326 325 324 322 321 320 320 323 322 319 316
283 283 287 293 293 298 290 294 303 306 306 309 307 311 312 316 319 320 321 322 324 322 319 319 319 319 317 315 316 323 325 325 325 325 324 324 322 321 321 319 319 320 318 317
285 284 281 295 295 290 296 302 305 306 306 309 310 312 314 317 318 320 319 323 324 321 318 318 319 318 316 314 316 319 324 325 324 324 328 326 323 321 321 318 316 315 317 314
284 286 294 297 296 300 302 303 304 305 305 309 308 312 313 316 319 319 322 323 323 319 317 319 319 319 315 316 315 318 324 324 324 326 325 324 323 321 320 316 317 319 320 319
289 293 295 297 300 301 302 302 305 306 306 308 307 312 312 314 317 320 321 323 323 320 317 317 318 319 318 316 317 323 323 324 324 325 322 323 324 323 321 316 315 318 320 318
292 295 295 299 299 300 302 303 303 304 305 307 308 309 311 312 315 318 321 323 325 321 319 317 318 319 318 318 318 322 323 323 324 324 323 322 321 321 323 320 317 318 319 318
287 294 293 295 299 302 301 301 303 303 303 306 308 309 311 311 315 319 319 322 324 323 321 320 319 319 320 318 320 322 321 322 322 323 322 319 314 308 295 300 304 306 308 314
293 297 297 298 300 301 300 301 303 303 304 306 308 309 310 310 312 317 322 324 324 324 323 321 320 319 321 319 321 321 320 321 320 320 320 314 312 312 310 305 298 298 301 303
298 299 296 297 296 300 301 303 305 304 306 308 310 310 310 310 314 320 320 322 326 327 326 322 321 319 322 321 322 322 320 310 321 320 319 315 313 311 311 315 318 315 300 300
298 299 299 301 301 301 302 302 302 303 304 305 309 309 310 310 312 318 323 326 327 326 327 324 322 320 323 322 321 321 321 320 322 321 318 316 315 312 311 312 320 316 308 302
297 300 301 298 299 301 300 301 301 302 304 305 306 310 311 311 314 323 322 321 321 319 323 324 323 323 323 322 321 321 321 311 314 320 319 317 316 314 313 311 313 316 316 316
298 297 299 298 298 300 300 301 303 304 304 305 306 310 313 312 315 318 317 318 318 321 321 320 320 325 323 321 322 321 321 315 307 320 320 319 318 316 315 315 313 312 317 311
302 302 303 302 299 300 301 303 304 304 305 307 308 311 313 311 316 316 316 317 318 318 319 318 315 322 323 321 323 322 321 319 317 319 320 320 319 321 317 316 316 314 313 310
303 303 303 304 304 302 303 304 306 308 309 309 309 312 313 314 318 319 315 315 315 316 316 318 307 315 318 307 312 322 321 319 319 319 318 309 311 318 320 317 316 316 316 314
301 303 303 304 305 304 303 305 306 306 307 307 309 311 310 313 317 317 315 311 311 309 316 318 316 316 317 314 305 319 321 320 319 318 318 315 316 315 316 308 317 316 315 316
299 301 302 303 302 303 303 303 303 303 304 305 305 306 307 307 311 308 306 305 307 304 312 309 313 308 313 306 318 322 320 320 318 318 317 314 314 313 314 314 314 317 316 314
299 301 302 301 299 300 301 301 301 302 302 302 302 303 303 302 304 306 303 300 303 293 306 306 305 295 297 295 323 324 324 324 321 319 317 316 315 314 315 314 315 315 315 316
300 300 300 301 298 297 299 300 299 298 299 299 298 299 299 300 299 298 298 300 299 295 301 299 292 295 298 319 319 316 316 317 320 322 323 321 317 317 317 316 317 317 316 314
301 301 300 300 298 297 295 296 298 297 296 296 297 297 295 295 297 297 298 293 291 295 296 292 293 292 297 306 308 310 308 307 309 313 314 305 317 320 321 320 317 317 315 310
301 301 299 297 296 295 295 296 296 296 295 294 294 295 294 295 293 295 295 297 291 295 297 291 290 292 298 299 299 299 299 298 300 304 306 306 309 309 312 313 316 319 321 317
301 298 298 297 295 296 295 295 293 294 293 292 293 293 293 294 294 294 294 292 294 291 293 293 292 294 295 295 296 296 296 294 295 296 297 299 300 305 304 306 310 312 316 319
302 298 297 296 296 296 295 293 292 291 292 293 292 293 293 293 292 292 290 292 292 292 291 291 290 290 291 292 292 292 292 292 290 292 293 294 295 296 298 300 303 303 304 304

GFSNGP_sfc_thetae_045.txt.gz
Theta_e
285 287 287 286 286 288 287 287 283 287 287 290 294 296 300 301 303 314 316 319 320 321 322 324 324 325 325 323 322 321 322 321 320 321 322 322 322 322 323 323 324 325 326 325
283 288 288 286 288 288 289 290 288 289 288 295 297 299 303 310 310 314 317 319 321 322 323 323 324 324 324 321 321 322 322 321 322 322 322 321 322 322 321 321 324 323 323 320
279 286 285 282 287 288 289 291 289 285 290 297 297 299 303 310 311 315 318 320 320 321 323 324 324 325 321 319 319 321 322 324 325 323 322 321 322 321 319 319 319 318 317 317
279 283 275 287 296 294 291 292 292 293 293 296 297 300 311 312 311 316 319 320 321 322 323 324 323 321 319 318 320 322 323 324 324 324 322 322 321 319 317 316 318 315 315 314
279 280 285 288 293 292 291 291 300 301 303 306 308 309 310 314 315 316 320 322 322 323 323 323 319 318 319 318 321 322 324 324 324 324 322 322 320 318 316 316 316 314 314 313
281 278 277 286 293 295 294 286 300 301 302 302 306 301 304 312 316 316 321 322 322 323 323 321 318 318 316 318 321 321 323 324 324 323 323 321 319 318 317 318 321 318 315 312
281 280 285 289 291 294 286 288 297 302 303 302 302 306 310 314 317 320 322 322 322 322 320 320 317 317 315 319 320 322 324 324 324 323 322 321 319 318 318 321 322 318 315 312
284 282 280 293 290 289 294 299 300 302 303 303 306 311 312 316 318 321 320 321 323 320 319 317 318 318 314 317 321 322 323 324 323 322 325 322 320 318 318 316 316 314 315 311
284 285 294 296 292 299 301 300 300 302 303 304 306 310 312 314 317 319 321 321 323 320 316 316 318 318 314 315 316 322 322 322 321 323 323 321 319 321 320 316 318 317 317 316
289 292 292 297 298 300 302 301 303 304 303 305 306 311 312 313 315 320 321 321 320 316 316 315 317 317 317 314 317 322 320 321 322 322 320 320 321 322 320 318 318 319 318 316
290 294 295 298 297 299 300 302 302 304 304 304 309 311 312 313 317 319 321 323 319 317 317 317 317 316 315 315 319 320 321 322 323 321 321 319 321 320 320 317 318 319 321 318
288 294 293 294 298 300 299 299 302 302 303 305 310 310 313 314 316 320 321 322 320 317 317 317 317 316 315 316 320 321 320 321 322 321 320 319 316 313 294 299 303 304 304 312
293 297 297 298 300 301 300 301 303 303 304 307 311 309 310 315 318 318 323 323 323 319 319 318 318 317 317 317 321 321 321 321 321 320 321 317 314 315 313 305 297 297 297 300
298 299 296 298 297 301 302 303 304 305 306 308 310 310 311 314 321 322 321 323 325 324 321 319 319 318 318 318 321 320 321 309 321 321 321 317 316 315 314 312 311 313 297 300
297 300 299 301 300 301 303 303 302 303 304 305 307 309 310 315 318 318 319 319 321 324 322 320 319 319 320 320 320 319 320 319 321 321 320 316 314 312 312 314 316 314 306 300
296 299 302 300 300 300 301 302 301 302 304 305 305 308 311 316 316 317 319 319 317 315 317 321 320 320 321 320 319 319 319 310 313 319 315 314 312 310 309 312 315 314 312 312
297 298 299 300 300 300 300 302 303 303 305 305 307 308 313 315 314 314 316 318 316 316 316 315 314 321 322 321 320 320 319 314 307 318 316 317 315 312 311 310 313 314 316 310
300 302 302 301 299 299 301 304 305 306 307 308 311 313 314 312 310 311 312 314 314 314 315 316 311 318 320 321 321 320 318 317 317 318 318 316 316 315 313 312 311 313 314 308
300 301 303 303 302 300 301 302 302 304 305 309 310 311 316 314 312 309 309 309 307 308 309 312 302 312 316 307 315 320 319 317 316 317 318 308 311 316 314 314 313 313 313 310
298 299 302 301 302 302 301 302 302 302 304 306 308 308 307 306 309 309 308 303 304 303 307 309 311 309 311 310 305 321 320 319 317 316 314 314 314 316 317 307 314 315 314 313
298 300 299 299 299 301 300 301 301 300 302 303 304 303 303 305 302 302 302 301 302 297 302 301 308 312 316 311 319 320 320 320 318 316 315 313 312 313 313 315 316 316 315 315
297 298 297 297 296 298 299 299 300 299 299 300 301 301 299 299 302 301 298 297 300 289 299 301 300 294 306 303 312 312 316 320 319 319 317 315 312 311 312 312 313 316 316 315
297 297 296 296 294 296 298 298 296 296 296 295 295 296 297 295 296 296 295 296 297 291 297 296 291 291 293 305 306 305 307 308 309 311 312 314 314 315 316 315 313 314 313 312
298 297 296 297 296 294 293 294 294 294 294 294 293 294 294 294 294 296 297 291 289 291 291 290 291 289 294 299 299 298 299 301 303 304 306 301 308 309 310 313 312 314 318 315
298 297 296 294 293 293 292 292 293 293 292 292 292 293 293 294 293 293 294 293 289 292 292 289 289 290 295 295 295 294 293 294 295 298 298 299 300 303 305 307 307 307 309 307
298 295 294 294 292 291 291 291 291 292 291 290 291 292 292 292 292 292 292 291 291 290 290 290 291 292 292 292 292 292 291 291 292 292 292 294 294 295 297 299 300 300 301 301
298 295 295 293 292 291 291 290 290 291 291 291 290 291 291 291 290 290 289 290 290 289 289 289 289 289 290 290 290 290 290 290 289 290 291 291 292 292 293 293 294 295 295 295